Location: *
(46.1333°S, 161.2167°W)
Time: 04:32:08
(UTC+00:00)

Cosmos 1689 Rocket - Pass Details

Date: 15 July 2020
Orbit: 365 x 382 km, 97.5° (Epoch: 10 August)

Event Time Altitude Azimuth Distance (km) Brightness Sun altitude
Rises 17:38:06 0° 190° (S) 2,308 5.7 -7.5°
Reaches altitude 10° 17:41:44 10° 236° (SW) 1,442 4.3 -6.9°
Maximum altitude 17:42:07 10° 243° (WSW) 1,430 4.3 -6.9°
Drops below altitude 10° 17:42:30 10° 250° (WSW) 1,440 4.3 -6.8°
Sets 17:46:07 0° 296° (WNW) 2,285 5.6 -6.2°
